Flag for Germany Weather past 2 weeks in Prenzlau, Brandenburg, Germany

Now
36 °F

Clear.


Feels Like: 29 °F
Forecast: 31 / 48 °F
Wind: 9 mph from Southeast

Location: Szczecin Airport

Current Time: Feb 27, 2015 at 12:26:32 AM

Latest Report: Feb 27, 2015 at 12:00 AM


Visibility: 10 mi

Pressure: 30.01 "Hg

Humidity: 81%

Dew point: 30 °F

Location of PrenzlauLocation

Historic Weather in Prenzlau — Graph

°F

Prenzlau temperature yesterday

Maximum temperature yesterday: 46 °F (at 12:30 PM)
Minimum temperature yesterday: 23 °F (at 7:30 AM)
Average temperature yesterday: 36 °F

Past Weeks' High & Low Weather Summary

 TemperatureHumidityPressure
High50 °F (Feb 21, 1:00 PM)100% (Feb 12, 9:00 PM)30.66 "Hg (Feb 12, 9:00 PM)
Low23 °F (Feb 26, 7:30 AM)4% (Feb 16, 1:00 AM)29.33 "Hg (Feb 21, 2:00 PM)
Average35 °F79%30.04 "Hg
* Reported Feb 11 11:00 PM — Feb 26 11:00 PM, Prenzlau, Weather by CustomWeather, © 2015

Note: Actual official high and low records may vary slightly from our data, if they occured in-between our weather recording intervals... More about our weather records

Advertising

Prenzlau weather history for previous 24 hours

 ConditionsComfort  
Time TempWeatherWind HumidityBarometerVisibility
11:00 PM
Thu, Feb 26
36 °FClear.9 mph81%30.04 "Hg10 mi
10:00 PM34 °FClear.8 mph81%30.04 "Hg10 mi
9:30 PM34 °FClear.8 mph75%30.07 "Hg10 mi
9:00 PM34 °FClear.7 mph75%30.07 "Hg10 mi
8:30 PM36 °FClear.7 mph70%30.07 "Hg10 mi
8:00 PM36 °FClear.8 mph70%30.07 "Hg10 mi
7:30 PM37 °FClear.7 mph65%30.09 "Hg10 mi
7:00 PM37 °FClear.7 mph65%30.09 "Hg10 mi
6:30 PM37 °FClear.5 mph70%30.09 "Hg10 mi
6:00 PM41 °FClear.5 mph61%30.09 "Hg10 mi
5:30 PM41 °FSunny.5 mph61%30.09 "Hg10 mi
5:00 PM43 °FSunny.6 mph61%30.12 "Hg10 mi
4:30 PM45 °FSunny.8 mph57%30.12 "Hg10 mi
4:00 PM46 °FSunny.8 mph50%30.12 "Hg10 mi
3:30 PM46 °FSunny.10 mph46%30.12 "Hg10 mi
3:00 PM46 °FSunny.9 mph43%30.15 "Hg10 mi
2:30 PM46 °FPassing clouds.9 mph50%30.15 "HgN/A
2:00 PM46 °FPassing clouds.10 mph53%30.15 "HgN/A
1:30 PM46 °FPassing clouds.9 mph50%30.15 "HgN/A
1:00 PM46 °FPassing clouds.9 mph57%30.18 "HgN/A
12:30 PM46 °FPassing clouds.10 mph62%30.18 "HgN/A
12:00 PM45 °FSunny.9 mph66%30.21 "Hg10 mi
11:30 AM43 °FSunny.9 mph71%30.21 "Hg10 mi
11:00 AM43 °FSunny.7 mph71%30.21 "Hg10 mi
10:30 AM41 °FClear.6 mph81%30.21 "Hg4 mi
10:00 AM39 °FFog.5 mph87%30.21 "Hg3 mi
9:30 AM37 °FFog.3 mph93%30.21 "Hg2 mi
9:00 AM36 °FFog.3 mph93%30.21 "Hg2 mi
8:30 AM32 °FIce fog.5 mph100%30.21 "Hg1 mi
8:00 AM30 °FIce fog.6 mph100%30.21 "Hg1 mi
7:30 AM23 °FIce fog.2 mph100%30.21 "Hg1 mi
7:00 AM25 °FIce fog.2 mph93%30.21 "Hg1 mi
6:30 AM25 °FIce fog.2 mph100%30.21 "Hg1 mi
6:00 AM25 °FIce fog.3 mph93%30.21 "Hg2 mi
4:00 AM25 °FClear.No wind93%30.18 "Hg4 mi
3:30 AM25 °FIce fog.No wind93%30.18 "Hg3 mi
3:00 AM25 °FIce fog.1 mph100%30.18 "Hg2 mi
2:30 AM27 °FIce fog.2 mph93%30.18 "Hg2 mi
2:00 AM27 °FIce fog.2 mph93%30.18 "Hg2 mi
1:30 AM27 °FIce fog.No wind93%30.18 "Hg2 mi
1:00 AM27 °FIce fog.2 mph100%30.18 "Hg2 mi
12:30 AM27 °FIce fog.2 mph93%30.18 "Hg2 mi
12:00 AM28 °FIce fog.No wind93%30.15 "Hg2 mi
Weather by CustomWeather, © 2015

See weather overviewHow to use our weather pages